This demonstration page uses our WeatherBlox Daily Observations layout. Learn more.

Left ArrowRight Arrow

30.21309, -93.2044

Hourly Observations for July 3, 2022

Temp ( °F °C ) Dew Point ( °F °C ) Humidity (%) Winds ( mph kmh ) Pressure ( in mb ) Visibility ( mi km ) Precip ( " mm )
12:15 am 00:15 Clear 78 25.3 75 23.9 92 92 S 3 6 29.99 1016 10 16 0.00 0.00
12:35 am 00:35 Clear 77 24.9 75 23.7 93 93 S 3 6 30.00 1016 10 16 0.00 0.00
12:55 am 00:55 Clear 77 25 75 23.9 94 94 Calm 30.00 1016 10 16 0.00 0.00
1:15 am 01:15 Clear 77 24.9 75 23.8 94 94 Calm 30.00 1016 10 16 0.00 0.00
1:35 am 01:35 Clear 76 24.7 75 23.7 94 94 SSE 3 6 30.00 1016 7 11 0.00 0.00
1:55 am 01:55 Clear with Mist and Fog 76 24.5 74 23.5 94 94 SSE 5 7 30.00 1016 7 11 0.00 0.00
2:15 am 02:15 Clear 76 24.7 75 23.7 94 94 Calm 30.00 1016 10 16 0.00 0.00
2:35 am 02:35 Clear 77 24.8 75 23.9 95 95 Calm 30.00 1016 7 11 0.00 0.00
2:55 am 02:55 Clear with Mist and Fog 76 24.5 74 23.6 95 95 S 3 6 30.00 1016 4 6 0.00 0.00
3:15 am 03:15 Partly Cloudy 76 24.5 74 23.6 95 95 S 3 6 30.00 1016 10 16 0.00 0.00
3:35 am 03:35 Partly Cloudy 77 24.9 75 23.8 94 94 Calm 30.00 1016 10 16 0.00 0.00
3:55 am 03:55 Partly Cloudy 77 24.9 75 23.8 94 94 Calm 30.00 1016 10 16 0.00 0.00
4:15 am 04:15 Partly Cloudy with Mist and Fog 76 24.2 74 23.2 94 94 S 5 7 30.00 1016 7 11 0.00 0.00
4:35 am 04:35 Clear 75 23.8 73 22.8 94 94 SSE 6 9 30.01 1016 10 16 0.00 0.00
4:55 am 04:55 Partly Cloudy 76 24.4 74 23.1 92 92 SSW 3 6 30.01 1016 10 16 0.00 0.00
5:15 am 05:15 Partly Cloudy 76 24.7 74 23.2 91 91 S 3 6 30.01 1016 10 16 0.00 0.00
5:35 am 05:35 Partly Cloudy 77 24.8 74 23.1 90 90 Calm 30.02 1017 10 16 0.00 0.00
6:00 am 06:00 Mostly Clear 75 24 73 23 94 94 Calm 30.03 1017 10 16 0.00 0.00
6:49 am 06:49 Mostly Sunny 75 24 73 23 94 94 Calm 30.04 1017 10 16 0.00 0.00
7:54 am 07:54 Mostly Sunny 81 27 77 25 89 89 SSW 5 7 30.05 1018 10 16 0.00 0.00
8:55 am 08:55 Partly Cloudy 84 29 75 24 74 74 SSW 9 15 30.05 1018 10 16 0.00 0.00
9:50 am 09:50 Partly Cloudy 88 31 73 23 62 62 SW 9 15 30.06 1018 10 16 0.00 0.00
10:48 am 10:48 Partly Cloudy 90 32 73 23 59 59 SSW 6 9 30.06 1018 10 16 0.00 0.00
11:45 am 11:45 Partly Cloudy 90 32 73 23 59 59 SSW 7 11 30.07 1018 10 16 0.00 0.00
12:53 pm 12:53 Partly Cloudy 91 33 73 23 56 56 SSW 12 19 30.07 1018 10 16 0.00 0.00
1:50 pm 13:50 Partly Cloudy 91 33 72 22 52 52 SW 14 22 30.04 1017 10 16 0.00 0.00
2:46 pm 14:46 Partly Cloudy 93 34 73 23 53 53 SW 10 17 30.03 1017 10 16 0.00 0.00
3:55 pm 15:55 Partly Cloudy 91 33 73 23 56 56 SSW 14 22 30.02 1017 10 16 0.00 0.00
4:55 pm 16:55 Partly Cloudy 91 33 73 23 56 56 SSW 12 19 30.01 1016 10 16 0.00 0.00
5:49 pm 17:49 Mostly Sunny 91 33 72 22 52 52 SW 9 15 30.00 1016 10 16 0.00 0.00
6:47 pm 18:47 Mostly Sunny 90 32 72 22 55 55 SSW 13 20 30.00 1016 10 16 0.00 0.00
7:45 pm 19:45 Mostly Sunny 88 31 73 23 62 62 SSW 9 15 30.02 1017 10 16 0.00 0.00
8:55 pm 20:55 Mostly Clear 82 28 75 24 79 79 Calm 30.03 1017 10 16 0.00 0.00
9:50 pm 21:50 Mostly Clear 79 26 75 24 89 89 Calm 30.04 1017 10 16 0.00 0.00
10:15 pm 22:15 Clear 80 26.4 75 24 87 87 SSE 3 6 30.05 1018 10 16 0.00 0.00
10:35 pm 22:35 Clear 79 26.3 75 24 87 87 SSE 5 7 30.05 1018 10 16 0.00 0.00
10:55 pm 22:55 Clear 77 25.1 74 23.5 91 91 SSE 5 7 30.05 1018 10 16 0.00 0.00
11:15 pm 23:15 Clear 77 25.1 75 23.7 92 92 S 3 6 30.06 1018 10 16 0.00 0.00
11:35 pm 23:35 Clear 77 25.1 74 23.6 91 91 S 5 7 30.06 1018 10 16 0.00 0.00
11:55 pm 23:55 Clear 77 24.9 74 23.5 92 92 S 5 7 30.06 1018 10 16 0.00 0.00

Powered by AerisWeather